Regional Weather Roundup
Issued by NWS

Home | Current Version | Previous Version | Text Only | Print | Product List | Glossary On
Versions: 1 2 3 4 5 6 7 8 9 10 11 12 13 14 15 16 17 18 19 20 21 22 23 24 25 26 27 28 29 30 31 32 33 34 35 36 37 38 39 40 41 42 43 44 45 46 47 48 49 50
000
ASUS43 KMKX 250054
RWRWI

WISCONSIN REGIONAL WEATHER ROUNDUP
NATIONAL WEATHER SERVICE MILWAUKEE/SULLIVAN WI
800 PM CDT SUN MAY 24 2015

NOTE: "FAIR" INDICATES FEW OR NO CLOUDS BELOW 12,000 FEET WITH NO
SIGNIFICANT WEATHER AND/OR OBSTRUCTIONS TO VISIBILITY.

WIZ001-002-006>008-014>016-023>028-250200-
NORTHWEST WISCONSIN

CITY           SKY/WX    TMP DP  RH WIND       PRES   REMARKS
SUPERIOR ARPT  CLOUDY    66  55  66 S9        29.95S
ASHLAND        CLOUDY    68  54  60 S6        29.97S
HAYWARD        LGT RAIN  60  56  86 E6        29.97F FOG
SIREN          DRIZZLE   59  58  94 E6        29.93F
CUMBERLAND     LGT RAIN  55  55 100 E9        29.93F
RICE LAKE      RAIN      58  56  91 E8        29.95F
CHETEK         RAIN      58  57  97 E6        29.93F
LADYSMITH      LGT RAIN  59  57  94 E6        29.98F
EAU CLAIRE     RAIN      58  56  93 E10       29.91F FOG
MENOMONIE      RAIN      59  58  97 E10       29.91F
NEW RICHMOND   RAIN      58  58 100 E8        29.90F
OSCEOLA        LGT RAIN  59  59 100 E9        29.93F
$$

WIZ003>005-009-010-017-018-250200-
NORTH CENTRAL WISCONSIN

CITY           SKY/WX    TMP DP  RH WIND       PRES   REMARKS
MANITOWISH WTR RAIN      57  57 100 S3        30.01F
ARBOR VITAE    LGT RAIN  59  57  92 SE7       30.01F
WOODRUFF       LGT RAIN  59  57  92 SE7       30.01F
RHINELANDER    LGT RAIN  57  55  93 E9        30.02F
EAGLE RIVER    RAIN      57  56  95 CALM      30.02F
LAND O LAKES   LGT RAIN  61  53  75 S6        30.03S
PHILLIPS       LGT RAIN  57  56  96 E5        29.99F
TOMAHAWK       RAIN      56  54  95 E5        30.00F
MEDFORD        RAIN      56  55  97 E8        29.96F
MERRILL        LGT RAIN  57  57 100 E10       29.98F
$$

WIZ029-030-035-036-043>047-250200-
CENTRAL WISCONSIN

CITY           SKY/WX    TMP DP  RH WIND       PRES   REMARKS
WAUSAU         RAIN      57  55  93 SE13      29.97F FOG
MOSINEE        RAIN      55  55 100 E9        29.99F
MARSHFIELD     LGT RAIN  58  55  90 SE13G21   29.95F FOG
STEVENS POINT  LGT RAIN  55  54  97 E7        29.98F
WAUPACA        HVY RAIN  58  57  97 E9        30.01S
WAUTOMA        LGT RAIN  57  57 100 E7        29.99F FOG
WISC RAPIDS    LGT RAIN  57  54  89 SE13      29.97F
CAMP DOUGLAS   CLOUDY    57  57 100 E12       29.92F
$$

WIZ011>013-019>022-031-037>040-048>050-250200-
NORTHEAST WISCONSIN

CITY           SKY/WX    TMP DP  RH WIND       PRES   REMARKS
ANTIGO         LGT RAIN  56  55  98 SE9       30.02F
SHAWANO        RAIN      60  57  89 E3        30.01F
OCONTO         CLOUDY    57  57 100 SE6       30.03F
STURGEON BAY   CLOUDY    54  48  82 SE7       30.07F
GREEN BAY      HVY RAIN  57  55  93 SE12      30.02F FOG
MANITOWOC      RAIN      54  54 100 SE8       30.04F FOG
APPLETON       LGT RAIN  55  55 100 E9        30.00F FOG
CLINTONVILLE   HVY RAIN  57  55  94 SE7       30.02F
OSHKOSH        LGT RAIN  57  54  89 SE12      29.97F FOG
$$

WIZ032>034-041-042-053>061-250200-
SOUTHWEST WISCONSIN

CITY           SKY/WX    TMP DP  RH WIND       PRES   REMARKS
LA CROSSE      LGT RAIN  61  57  87 SE7       29.88F
SPARTA         CLOUDY    58  56  92 SE9       29.92S
VIROQUA        CLOUDY    58  58 100 E14G20    29.89F
BOSCOBEL       CLOUDY    62  58  86 NE5       29.88F
PRAIRIE DU CHI DRIZZLE   63  59  87 CALM      29.86F
PLATTEVILLE    CLOUDY    63  61  95 E14       29.88F
$$

WIZ056-057-062-063-064-067-068-250200-
SOUTH CENTRAL WISCONSIN

CITY           SKY/WX    TMP DP  RH WIND       PRES   REMARKS
REEDSBURG      CLOUDY    57  56  95 E7        29.93F
BARABOO/DELLS  CLOUDY    57  54  91 E10G17    29.94F
LONE ROCK      CLOUDY    61  57  87 E15       29.91F
MINERAL POINT  CLOUDY    61  59  94 E13       29.89F FOG
MADISON        LGT RAIN  58  54  86 SE9G18    29.92F FOG
MIDDLETON      CLOUDY    59  57  94 CALM      29.95R
WATERTOWN      CLOUDY    56  56 100 E12G17    29.94F
MONROE         CLOUDY    59  59 100 E7        29.92R
JANESVILLE     LGT RAIN  63  55  77 E13G18    29.90F
$$

WIZ051-052-058>065-066-070>072-250200-
SOUTHEAST WISCONSIN

CITY           SKY/WX    TMP DP  RH WIND       PRES   REMARKS
MILWAUKEE      CLOUDY    53  49  86 E7        29.98F FOG
WAUKESHA       CLOUDY    54  52  94 E9        29.98F
MILWAUKEE/TIMM CLOUDY    54  52  94 E6        29.99F FOG
RACINE         CLOUDY    55  50  83 E10       29.98F
BURLINGTON     CLOUDY    57  54  88 E7        29.95F
KENOSHA        MOCLDY    56  53  90 E9        29.96F
FOND DU LAC    LGT RAIN  57  53  86 SE13      29.96F
SHEBOYGAN      RAIN      55  53  93 NE8       30.02F FOG
WEST BEND      CLOUDY    54  52  94 E9        29.99F
JUNEAU         LGT RAIN  55  53  92 E13       29.96F
$$

LSZ147-162-250200-
LAKE SUPERIOR

STATION/POSITION TIME  TEMP    WIND        PRES    WAVE
                       AIR SEA DIR/SP/G            HT/PER
                 (UTC) (F)     (DEG/KT/KT) (MB)    (FT/S)
W MID LAKE BUOY  2350   44 37   50/  6/  6   N/A     0
DEVILS ISLAND    0000          100/  6/  7   N/A
PORT WING        2340   67     200/  3/  5   N/A
SAXON HARBOR     2140   60        CALM       N/A
$$

LMZ867-665-643>646-250200-
LAKE MICHIGAN

STATION/POSITION TIME  TEMP    WIND        PRES    WAVE
                       AIR SEA DIR/SP/G            HT/PER
                 (UTC) (F)     (DEG/KT/KT) (MB)    (FT/S)
CHAMBERS ISLAND  2300   57     160/  3/  7   N/A
N MID LAKE BUOY  2350   44 36  220/  8/  8   N/A     2/ 4
NORTHPORT PIER   2300   56     140/  6/  9   N/A
SISTER BAY       2317   56     190/ 10/ 11   N/A
KEWAUNEE LAKESHO 0000   49     130/  2/  6   N/A
SHEBOYGAN LAKESH 0000   50      30/  7/  8   N/A
ATWATER BUOY     0000   48 47   30/  6/  8   N/A
MILWAUKEE LAKESH 0000   51      60/  4/  7   N/A
S MID LAKE BUOY  2350   47 38   90/ 10/ 12   N/A     1
$$

TC  - TEMPERATURE IN CELSIUS
VSB - VISIBILITY IN STATUTE MILES
WCI - WIND CHILL INDEX
HX  - HEAT INDEX



USA.gov is the U.S. government's official web portal to all federal, state and local government web resources and services.